USA 115 (MILSTAR-1 2)

Last updated on Wed Jul 02 2025 00:02:43 GMT+0000 (Coordinated Universal Time)

1 23712U 95060A 25182.54347103 -.00000024 00000+0 00000+0 0 9995 2 23712 13.9431 6.3164 0002211 76.5688 272.5837 1.00271508 29362
UTC large
Height (km)
Speed (km/s)
/
Latitude / Longitude
Inclination (degrees)
Orbital Period (minutes)
Azimuth
Elevation
Range (km)
Doppler Factor

Next 0 passes for location: London (51.5072 / 0.1276)

Sorry there are no passes over London.